Location: La Mothe
(47.7766°N, 1.4184°W)
Time: 13:15:07
(UTC+00:00)

Daily predictions for brighter satellites

Satellite Brightness Start Highest point End
(mag) Time Altitude Azimuth Time Altitude Azimuth Time Altitude Azimuth
YAOGAN 1 3.5 18:55:33 10° S 18:59:47 55° W 19:04:04 10° NNW
STARLINK-1238 2.9 18:56:54 10° SW 19:00:02 72° SSE 19:03:10 10° ENE
STARLINK-1269 3.9 18:56:31 10° SW 19:00:27 49° SE 19:04:24 10° ENE
STARLINK-1094 3.6 18:56:34 10° WNW 19:00:38 89° SSW 19:04:41 10° ESE
STARLINK-1205 2.8 18:57:50 10° SW 19:00:56 73° SSE 19:04:04 10° ENE
Cosmos 371 Rocket 4.1 18:56:15 10° NNW 19:00:58 56° WSW 19:05:41 10° S
Cosmos 2297 3.9 18:55:24 10° NNW 19:00:59 55° ENE 19:06:33 10° SE
STARLINK-1204 2.8 18:58:19 10° SW 19:01:25 74° SSE 19:04:32 10° ENE
Cosmos 1455 Rocket 3.3 18:57:46 10° SSE 19:01:53 45° E 19:06:03 10° NNE
STARLINK-1111 4.3 18:58:32 10° WNW 19:02:33 46° NNE 19:06:34 10° E
STARLINK-1200 3.8 19:01:16 10° SW 19:05:15 53° SE 19:09:13 10° ENE
STARLINK-1117 3.6 19:01:25 10° WNW 19:05:28 84° SSW 19:09:32 10° ESE
S3M 4.1 18:59:27 10° S 19:05:47 73° E 19:12:11 10° NNE
Cosmos 2237 Rocket 2.3 19:00:26 10° SSW 19:06:04 86° WNW 19:11:45 10° NNE
Cosmos 1386 Rocket 4.4 19:00:07 10° N 19:06:12 77° E 19:12:12 10° SSE
STARLINK-1073 4.3 19:03:32 10° WNW 19:07:34 47° NNE 19:11:35 10° E
Cosmos 1892 Rocket 3.6 19:03:52 10° N 19:08:23 85° E 19:12:52 10° S
CZ-2C R/B 4.1 19:06:02 10° NE 19:08:56 15° E 19:11:50 10° ESE
Cosmos 1626 Rocket 4.3 19:05:05 10° N 19:09:03 32° ENE 19:12:59 10° SE
NOSS 2-1 (C) 4.2 19:05:54 10° WSW 19:09:10 45° NW 19:12:49 10° NNE
STARLINK-1078 3.6 19:05:51 10° WNW 19:09:55 79° SSW 19:13:58 10° SE
STARLINK-1192 3.7 19:06:00 10° SW 19:09:59 57° SE 19:14:00 10° ENE
Cosmos 1805 3.3 19:06:07 10° S 19:10:02 89° ESE 19:13:59 10° N
BREEZE-M DEB (TANK) 4.4 18:57:02 10° WNW 19:11:28 52° SW 19:15:07 10° SE
Cosmos 2278 Rocket 3.5 19:06:36 10° NW 19:11:57 43° WSW 19:17:16 10° S
STARLINK-1121 4.2 19:08:30 10° WNW 19:12:33 49° NNE 19:16:35 10° E
Meteor 2-5 Rocket 3.9 19:07:02 10° NNW 19:12:44 81° W 19:18:17 10° S
NOSS 2-1 (D) 4.4 19:10:09 10° WSW 19:13:24 41° NW 19:17:01 10° NNE
STARLINK-1108 3.7 19:10:44 10° WNW 19:14:47 74° SSW 19:18:50 10° SE
STARLINK-1244 3.6 19:10:53 10° SW 19:14:53 61° SSE 19:18:56 10° ENE
ARGOS 3.4 19:11:06 10° SE 19:16:21 54° ENE 19:21:36 10° N
Cosmos 1602 Rocket 4.4 19:13:04 10° N 19:17:04 31° ENE 19:21:00 10° SE
STARLINK-1106 4.2 19:13:28 10° WNW 19:17:32 50° NNE 19:21:25 11° E
STARLINK-1071 3.8 19:15:23 10° WNW 19:19:26 70° SSW 19:23:26 10° SE
STARLINK-1138 3.6 19:15:27 10° SW 19:19:29 65° SSE 19:23:33 10° ENE
Okean 1-7 Rocket 3.6 19:16:00 10° N 19:20:25 84° W 19:24:49 10° S
STARLINK-1234 3.1 19:17:31 10° WSW 19:20:28 63° NNW 19:23:26 10° ENE
Cosmos 494 Rocket 3.9 19:16:56 10° SSW 19:22:05 84° ESE 19:27:19 10° NNE
STARLINK-1112 4.1 19:18:29 10° WNW 19:22:34 52° NNE 19:26:14 12° E
USA 186 2.0 19:20:08 10° SSE 19:23:30 57° ENE 19:26:50 10° N
STARLINK-1110 3.8 19:19:51 10° WNW 19:23:53 65° SSW 19:27:43 11° SE
Meteor 1-24 Rocket 3.7 19:18:25 10° NNW 19:24:00 86° W 19:29:21 10° S
STARLINK-1143 3.6 19:20:19 10° SW 19:24:23 70° SSE 19:28:28 10° ENE
STARLINK-1124 3.9 19:21:14 10° WNW 19:25:20 64° SSW 19:29:13 11° SE
STARLINK-1128 4.0 19:23:28 10° WNW 19:27:33 54° NNE 19:31:01 14° E
CZ-2C R/B 2.9 19:23:43 10° SSE 19:28:43 69° ENE 19:33:32 10° N
Cosmos 1544 Rocket 3.5 19:25:05 10° S 19:29:25 66° E 19:33:51 10° NNE
Cosmos 1331 Rocket 4.3 19:24:20 10° NNW 19:29:29 68° WSW 19:34:35 10° S
Cosmos 1470 3.1 19:27:50 10° SSE 19:31:29 41° E 19:35:10 10° NNE
USA 81 4.4 19:27:15 10° N 19:32:30 69° W 19:37:43 10° S
STARLINK-1113 4.0 19:28:27 10° WNW 19:32:33 57° NNE 19:35:47 15° E
STARLINK-1241 3.5 19:28:39 10° SW 19:32:42 79° SSE 19:36:46 10° ENE
STARLINK-1122 4.0 19:29:19 10° WNW 19:33:19 57° SW 19:36:48 13° SE
Cosmos 883 Rocket 4.5 19:28:39 10° S 19:34:49 74° E 19:41:05 10° NNE
CZ-4 R/B 4.3 19:32:32 10° SW 19:35:07 17° W 19:37:42 10° NW
SPOT 3 Rocket 3.9 19:30:31 10° SE 19:35:31 49° ENE 19:40:32 10° N
MOS 1 4.3 19:31:45 10° SSE 19:37:24 84° ENE 19:43:06 10° NNW
STARLINK-1119 3.9 19:33:25 10° WNW 19:37:32 59° NNE 19:40:34 17° E
STARLINK-1239 3.5 19:33:33 10° WSW 19:37:36 84° SSE 19:41:41 10° ENE
STARLINK-1126 4.1 19:34:18 10° WNW 19:38:16 53° SW 19:41:36 14° SE
Cosmos 2369 Rocket 2.9 19:33:57 10° NNW 19:39:16 38° NE 19:43:15 17° ESE
SJ-6B 2.8 19:37:32 10° SSE 19:41:35 74° ENE 19:45:44 10° N
STARLINK-1240 3.5 19:38:16 10° WSW 19:42:20 88° SE 19:46:25 10° ENE
Cosmos 1733 3.8 19:38:40 10° SSW 19:42:23 59° W 19:46:08 10° N
STARLINK-1114 3.8 19:38:26 10° WNW 19:42:33 62° NNE 19:45:24 19° E
STARLINK-1082 4.2 19:38:49 10° WNW 19:42:45 49° SW 19:45:55 15° SE
Cosmos 1726 3.5 19:42:57 19° E 19:43:22 19° E 19:46:05 10° NE
Aureole 2 Rocket 3.6 19:41:34 10° N 19:44:37 27° ENE 19:45:57 21° E
Ariane Rocket 3.4 19:39:38 10° S 19:44:41 65° WSW 19:49:44 10° NNW
Cosmos 1758 3.4 19:41:26 10° S 19:45:25 55° E 19:49:28 10° NNE
STARLINK-1216 3.5 19:43:01 10° WSW 19:47:05 87° NNW 19:51:02 11° ENE
STARLINK-1130 (DARKSAT) 3.8 19:43:24 10° WNW 19:47:32 65° NNE 19:50:10 21° E
STARLINK-1100 4.3 19:43:44 10° WNW 19:47:39 46° SW 19:50:39 16° SSE
CZ-2C R/B 3.9 19:44:49 10° NNE 19:49:27 50° E 19:54:01 10° S
STARLINK-1209 3.8 19:47:41 10° W 19:50:29 41° NNW 19:52:50 13° NE
STARLINK-1237 3.6 19:47:47 10° WSW 19:51:52 82° NNW 19:55:38 12° ENE
STARLINK-1083 4.5 19:48:31 10° WNW 19:52:23 42° SW 19:55:12 17° SSE
STARLINK-1084 3.7 19:48:22 10° WNW 19:52:31 69° NNE 19:54:56 24° ESE
STARLINK-1228 3.9 19:49:54 10° W 19:52:39 40° NNW 19:54:50 14° NE
Cosmos 2184 Rocket 4.4 19:49:00 10° N 19:55:04 45° ENE 19:59:37 17° SE
IRIDIUM 106 4.5 19:50:17 10° N 19:55:25 53° E 20:00:12 12° SSE
STARLINK-1202 3.6 19:52:32 10° WSW 19:56:36 78° NNW 20:00:12 13° ENE
SL-14 R/B 4.1 19:53:05 10° NNW 19:57:03 54° W 20:00:58 10° S
STARLINK-1098 3.7 19:53:22 10° WNW 19:57:31 72° NNE 19:59:43 26° ESE
Cosmos 1943 Rocket 2.2 19:55:20 10° NNW 20:00:52 66° ENE 20:04:35 21° SE
Meteor 1-21 Rocket 4.2 19:56:06 10° N 20:01:40 63° ENE 20:06:08 16° SSE
STARLINK-1123 3.6 19:58:20 10° WNW 20:02:30 76° NNE 20:04:30 29° ESE
Cosmos 1943 4.1 20:01:04 19° SE 20:03:26 26° ESE 20:08:02 10° NE
STARLINK-1246 3.8 19:59:44 10° WSW 20:03:50 72° NNW 20:07:11 15° ENE
STARLINK-67 4.2 20:01:39 10° WNW 20:03:58 28° N 20:05:15 18° NE
SL-8 R/B 3.7 20:00:05 10° W 20:04:53 85° N 20:07:34 26° E
Meteor 2-10 4.5 20:00:53 10° SSE 20:05:52 42° E 20:11:04 10° NNE
STARLINK-1201 3.9 20:03:23 10° W 20:06:33 46° NNW 20:08:42 18° NE
STARLINK-1097 3.6 20:03:18 10° WNW 20:07:28 80° NNE 20:09:16 33° ESE
Resurs 1-3 3.5 20:05:32 19° SSE 20:08:36 72° ENE 20:13:00 10° N
Cosmos 1626 3.6 20:05:09 10° NNW 20:08:37 38° W 20:12:03 10° SSW
ATLAS 2AS CENTAUR R/B 3.7 20:02:36 10° NW 20:09:50 39° NNE 20:14:22 20° E
STARLINK-1224 3.8 20:06:54 10° WSW 20:10:56 67° NNW 20:13:58 17° ENE
STARLINK-1203 3.9 20:08:18 10° WSW 20:12:15 62° NNW 20:15:06 18° ENE
STARLINK-1099 3.5 20:08:17 10° WNW 20:12:27 85° NNE 20:14:04 36° ESE
Cosmos 2315 Rocket 4.3 20:07:18 10° SSW 20:13:37 74° W 20:20:01 10° N
H-2A R/B 3.2 20:10:18 10° S 20:15:21 44° W 20:20:18 10° NNW
STARLINK-1225 3.9 20:11:30 10° WSW 20:15:32 64° NNW 20:18:23 19° ENE
Cosmos 2154 Rocket 4.5 20:10:06 10° N 20:16:09 43° ENE 20:18:59 28° SE
USA 234 3.2 20:10:17 10° ENE 20:16:50 70° SE 20:23:21 10° SW
Aureole 3 3.5 20:13:15 10° S 20:17:17 82° E 20:22:31 10° N
SL-08 RB Rocket 4.2 20:12:59 10° S 20:17:26 60° W 20:21:58 10° NNW
STARLINK-1104 3.5 20:13:16 10° WNW 20:17:26 89° N 20:18:51 41° ESE
Resurs 01 Rocket 1.6 20:16:27 30° SE 20:18:31 65° ENE 20:22:54 10° N
Meteor 2-15 Rocket 4.4 20:12:34 10° S 20:18:39 90° E 20:24:45 10° N
DMSP B5D2-2 4.0 20:13:49 10° NNE 20:19:01 67° ESE 20:24:13 10° S
STARLINK-1233 4.1 20:16:38 10° W 20:19:36 38° NNW 20:21:02 24° NE
STARLINK-1212 4.1 20:17:06 10° W 20:20:04 38° NNW 20:21:27 24° NE
Cosmos 1328 4.5 20:16:32 10° N 20:20:14 35° ENE 20:20:25 35° E
STARLINK-1230 4.0 20:16:16 10° WSW 20:20:18 61° NNW 20:22:57 20° NE
STARLINK-1105 4.1 20:17:32 10° W 20:20:30 38° NNW 20:21:54 24° NE
SL-16 R/B 2.7 20:15:01 10° SW 20:20:37 62° WNW 20:26:16 10° NNE
STARLINK-1206 4.1 20:18:02 10° W 20:20:59 38° NNW 20:22:19 25° NE
STARLINK-1247 4.2 20:18:29 10° W 20:21:25 38° NNW 20:22:44 25° NE
Abrixas rocket 3.4 20:19:04 10° SW 20:20:46 26° SSW 20:20:46 26° SSW
STARLINK-1227 4.2 20:18:54 10° W 20:21:52 38° NNW 20:23:11 25° NE
STARLINK-1218 4.2 20:19:24 10° W 20:22:21 37° NNW 20:23:36 25° NE
STARLINK-1144 3.5 20:18:16 10° WNW 20:22:25 86° SW 20:23:38 45° ESE
Cosmos 2228 3.5 20:22:39 36° E 20:22:39 36° E 20:26:34 10° NNE
STARLINK-1226 4.2 20:19:50 10° W 20:22:47 37° NNW 20:24:03 25° NE
STARLINK-1254 4.2 20:20:16 10° W 20:23:14 37° NNW 20:24:29 25° NE
STARLINK-1215 4.2 20:20:45 10° W 20:23:41 37° NNW 20:24:55 26° NE
STARLINK-1231 4.2 20:21:12 10° W 20:24:08 37° NNW 20:25:19 26° NE
STARLINK-1232 4.2 20:22:07 10° W 20:25:03 37° NNW 20:26:12 26° NNE
STARLINK-1243 4.1 20:21:07 10° W 20:25:09 58° NNW 20:27:36 22° NE
STARLINK-1217 4.2 20:22:34 10° W 20:25:31 37° NNW 20:26:38 26° NNE
STARLINK-1208 4.2 20:22:58 10° W 20:25:56 37° NNW 20:27:05 26° NNE
STARLINK-1229 4.2 20:23:28 10° W 20:26:24 36° NNW 20:27:30 27° NNE
Cosmos 1953 2.1 20:23:07 14° S 20:26:27 86° E 20:30:26 10° N
STARLINK-1271 4.2 20:23:55 10° W 20:26:51 36° NNW 20:27:55 27° NNE
STARLINK-1270 4.2 20:24:24 10° W 20:27:19 36° NNW 20:28:23 27° NNE
STARLINK-1103 3.5 20:23:14 10° WNW 20:27:24 81° SSW 20:28:25 50° SE
STARLINK-1154 4.2 20:24:51 10° W 20:27:46 36° NNW 20:28:48 27° NNE
STARLINK-1197 4.2 20:25:45 10° W 20:28:41 36° NNW 20:29:41 28° NNE
STARLINK-1189 4.2 20:26:12 10° W 20:29:08 36° NNW 20:30:07 28° NNE
STARLINK-1236 4.1 20:25:56 10° W 20:29:57 56° NNW 20:32:12 24° NE
STARLINK-1187 4.3 20:27:06 10° W 20:30:01 34° N 20:31:00 27° NNE
STARLINK-1198 4.3 20:27:07 10° W 20:30:02 35° NNW 20:30:58 28° NNE
STARLINK-1188 4.3 20:27:07 10° W 20:30:03 35° NNW 20:30:59 28° NNE
Cosmos 1992 Rocket 3.9 20:25:27 10° NNW 20:30:42 88° ENE 20:33:07 33° SSE
STARLINK-1235 4.4 20:27:50 10° WNW 20:30:45 33° N 20:31:43 27° NNE
STARLINK-1199 4.3 20:29:04 10° W 20:32:00 35° NNW 20:32:53 29° NNE
STARLINK-1101 3.6 20:28:13 10° WNW 20:32:22 76° SSW 20:33:11 54° SE
STARLINK-1191 4.3 20:29:31 10° W 20:32:27 35° NNW 20:33:20 29° NNE
STARLINK-1210 4.3 20:29:58 10° W 20:32:55 35° NNW 20:33:46 29° NNE
STARLINK-1221 4.3 20:30:25 10° W 20:33:22 35° NNW 20:34:11 29° NNE
Nadezhda 1 Rocket 4.2 20:29:47 24° SSE 20:33:27 52° E 20:39:38 10° NNE
STARLINK-1219 4.3 20:30:53 10° W 20:33:49 35° NNW 20:34:39 29° NNE
STARLINK-1222 4.3 20:31:20 10° W 20:34:16 35° NNW 20:35:04 29° NNE
STARLINK-1211 4.3 20:31:47 10° W 20:34:43 35° NNW 20:35:30 30° NNE
STARLINK-1214 4.3 20:32:14 10° W 20:35:10 35° N 20:35:56 30° NNE
STARLINK-1245 4.3 20:32:43 10° W 20:35:38 34° N 20:36:20 30° NNE
ISS -3.9 20:32:20 10° WNW 20:35:39 87° W 20:35:39 87° W
STARLINK-1238 4.3 20:33:07 10° W 20:36:02 34° NNW 20:36:46 30° NNE
STARLINK-1205 4.3 20:34:03 10° W 20:36:57 34° N 20:37:37 30° NNE
STARLINK-1102 3.6 20:33:11 10° WNW 20:37:19 71° SSW 20:37:58 58° SSE
STARLINK-1204 4.3 20:34:33 10° WNW 20:37:26 34° N 20:38:03 30° NNE
STARLINK-1269 4.3 20:35:54 10° W 20:39:53 52° NNW 20:41:43 28° NE
Cosmos 2058 Rocket 4.3 20:42:37 27° ENE 20:42:37 27° ENE 20:45:20 10° NNE
MetOp-B 4.1 20:40:10 41° SE 20:42:00 69° ENE 20:47:21 10° N
STARLINK-1111 3.6 20:38:11 10° WNW 20:42:18 66° SSW 20:42:45 60° S
Cosmos 1603 3.6 20:36:50 10° SSW 20:42:23 63° ESE 20:47:56 10° NNE
Cosmos 2084 Rocket 3.8 20:37:59 10° NW 20:42:25 63° SW 20:43:30 46° S
Cosmos 2251 Rocket 3.4 20:37:58 10° SSW 20:43:20 86° ESE 20:48:45 10° NNE
Cosmos 1703 3.2 20:39:58 10° N 20:43:49 65° ENE 20:43:49 65° ENE
SPOT 5 4.0 20:44:25 24° NE 20:44:25 24° NE 20:47:28 10° N
Meteor 1-16 Rocket 4.0 20:40:19 21° S 20:43:57 75° E 20:49:25 10° NNE
STARLINK-1200 4.3 20:40:45 10° W 20:44:44 50° NNW 20:46:20 31° NE
STARLINK-1073 3.7 20:43:11 10° WNW 20:47:16 61° SW 20:47:33 60° SSW
IGS 5A 4.1 20:49:01 42° NE 20:49:01 42° NE 20:52:33 10° N
Cosmos 2074 Rocket 4.1 20:42:27 10° NNW 20:48:44 76° W 20:53:00 22° S
ERS-1 Rocket 3.7 20:48:38 36° ENE 20:48:49 36° ENE 20:53:24 10° N
STARLINK-1192 4.4 20:45:33 10° W 20:49:31 48° NNW 20:50:55 33° NE
CZ-2C R/B 2.6 20:44:41 10° NNE 20:49:54 80° WNW 20:55:04 10° SSW
Landsat 7 4.0 20:49:40 50° E 20:49:55 50° ENE 20:54:32 10° N
STARLINK-1121 3.8 20:48:09 10° WNW 20:52:14 57° SW 20:52:19 57° SSW
STARLINK-1244 4.4 20:50:31 10° W 20:54:28 47° NNW 20:55:39 35° NNE
Cosmos 292 Rocket 4.4 20:50:38 10° NNW 20:55:16 50° WSW 20:57:04 33° SSW
STARLINK-1106 4.0 20:53:07 10° WNW 20:57:04 53° SW 20:57:04 53° SW
STARLINK-1138 4.5 20:55:05 10° W 20:59:02 46° NNW 21:00:03 37° NNE
Cosmos 1656 Rocket 3.6 20:55:23 10° NNW 21:01:04 72° ENE 21:02:04 59° ESE
MOS 1 Rocket 4.0 20:56:54 10° N 21:02:03 61° WNW 21:07:22 10° SSW
STARLINK-1112 4.2 20:58:09 10° WNW 21:01:53 48° SW 21:01:53 48° SW
Cosmos 1610 Rocket 4.4 20:56:50 10° N 21:03:06 88° WSW 21:05:25 41° S
Meteor 1-11 4.1 20:57:25 10° N 21:03:15 79° ENE 21:04:29 56° SSE
Aureole 1 Rocket 4.4 21:01:50 40° SSE 21:04:09 52° ESE 21:10:34 10° NNE
Cosmos 1437 4.4 21:01:32 10° NNW 21:03:36 32° WNW 21:03:36 32° WNW
STARLINK-1128 4.4 21:03:09 10° WNW 21:06:40 43° WSW 21:06:40 43° WSW
Cosmos 1726 Rocket 3.5 21:10:43 80° NNW 21:10:43 80° NNW 21:14:59 10° N
COSMOS 2455 3.6 21:08:39 10° NNW 21:14:16 38° NE 21:15:09 36° ENE
Aureole 2 Rocket 4.5 21:15:28 10° NW 21:18:09 23° W 21:18:09 23° W
Cosmos 1726 3.8 21:17:22 28° WSW 21:18:21 33° WNW 21:21:47 10° N
Cosmos 1461 4.3 21:17:22 10° NNW 21:20:56 33° NNE 21:20:56 33° NNE
Cosmos 2341 Rocket 3.9 21:15:33 10° N 21:21:56 73° E 21:22:43 65° SE
Cosmos 1908 4.4 21:24:02 39° NNW 21:24:02 39° NNW 21:26:43 10° N
Cosmos 2369 Rocket 3.2 21:18:03 10° NW 21:23:20 41° WSW 21:25:03 32° SSW
NOSS 3-4 (A) 3.8 21:21:47 10° NW 21:28:43 75° NE 21:30:09 59° ESE
NOSS 3-4 (C) 3.8 21:21:53 10° NW 21:28:49 74° NE 21:30:14 59° ESE
Cosmos 1953 Rocket 4.5 21:26:09 10° NNW 21:30:23 44° W 21:30:32 44° W
Terra 2.7 21:32:46 41° NNE 21:32:46 41° NNE 21:36:12 10° N
Spot 2 Rocket 4.2 21:35:52 45° WSW 21:36:31 48° W 21:41:29 10° NNW
NOSS 3-3 (A) 4.2 21:32:16 10° SW 21:38:11 69° NW 21:44:56 10° NE
NOSS 3-3 (C) 4.2 21:32:22 10° SW 21:38:16 69° NW 21:45:02 10° NE
SPOT 1/Viking Rocket 3.7 21:41:28 67° W 21:41:28 67° W 21:46:35 10° NNW
Cosmos 1943 Rocket 4.1 21:40:01 10° NW 21:44:05 21° W 21:46:08 17° SW
Cosmos 1943 3.7 21:42:18 14° SW 21:47:05 57° WNW 21:52:43 10° NNE
Cosmos 2218 Rocket 4.0 21:42:49 10° N 21:48:36 69° NE 21:48:36 69° NE
Resurs 01 Rocket 4.1 21:54:02 13° WSW 21:55:28 15° W 21:57:58 10° NW
APEX 4.4 21:49:38 10° NNW 21:56:22 78° W 21:56:22 78° W
USA 234 3.9 21:53:25 10° NE 21:59:45 54° NNW 22:06:04 10° W
Cosmos 2181 Rocket 4.0 22:00:16 77° NNE 22:00:16 77° NNE 22:06:03 10° N
ATLAS 2AS CENTAUR R/B 2.7 21:53:51 10° NW 22:01:28 74° SW 22:01:48 72° SSW
Cosmos 407 Rocket 4.5 22:06:46 41° N 22:06:46 41° N 22:10:10 10° NNE
Cosmos 1697 Rocket 4.4 22:06:01 10° N 22:10:12 22° NE 22:10:12 22° NE
Mayak 1.5 22:15:06 10° NNE 22:15:32 13° NNE 22:15:32 13° NNE
SL-8 Rocket 4.4 22:15:43 10° NNW 22:21:40 58° W 22:21:40 58° W
Cosmos 2366 rocket 4.4 22:23:42 10° NNW 22:29:00 58° WNW 22:29:00 58° WNW
Cosmos 1980 Rocket 4.1 22:31:39 10° N 22:35:28 20° NE 22:35:28 20° NE
CZ-4C R/B 4.2 22:30:21 10° NW 22:36:10 30° NNE 22:38:44 25° ENE
COSMOS 2455 4.1 22:54:35 10° NW 22:58:18 35° WNW 22:58:18 35° WNW
Terra 4.3 23:11:38 17° WNW 23:11:38 17° WNW 23:13:14 10° NW
USA 234 4.4 23:36:06 10° ENE 23:42:04 40° N 23:48:03 10° WNW
Mayak 1.9 23:51:53 10° NNW 23:52:06 11° NNW 23:52:06 11° NNW
